SCP
0 0 0 0 0 -0 -0 0 0 -0 -0 -0 0 -0 -0 0 0 0 0 0 0 0 0 0 0 0 0 0 0 0 0 0
0 0 0 0 0 0 -0 0 0 -0 -0 -0 0 -0 0 -0 0 0 0 0 0 0 0 0 0 0 0 0 0 0 0 0
0 0 0 0 0 0 0 0 0 0 0 -0 -0 0 0 0 0 -0 0 0 0 0 0 0 0 0 0 0 0 0 0 0
0 0 0 0 0 0 0 0 0 0 0 0 -0 0 0 0 0 0 0 0 0 0 0 0 0 0 0 0 0 0 0 0
0 0 0 0 0 0 0 0 0 0 0 0 0 0 0 0 0 0 0 0 0 0 0 0 0 0 0 0 0 0 0 0
0 0 0 0 0 0 0 0 0 0 0 0 0 0 0 0 0 0 0 0 0 0 0 0 0 0 0 0 0 0 0 0
0 0 0 0 0 0 0 0 0 0 0 0 0 0 0 0 0 0 0 0 0 0 0 0 0 0 0 0 0 0 0 0
0 0 0 0 0 0 0 0 0 0 0 0 0 0 0 0 0 0 0 0 0 0 0 0 0 0 0 0 0 0 0 0
0 0 0 0 0 0 -0 0 0 0 0 0 0 0 0 0 0 0 0 0 0 0 0 0 0 0 0 0 0 0 0 0
0 0 0 0 0 0 0 0 0 0 0 -0 0 0 0 0 0 0 0 0 0 0 0 0 0 0 0 0 0 0 0 0
0 0 0 0 0 0 0 0 0 0 -0 -0 0 0 0 0 0 0 0 0 0 0 0 0 0 0 0 0 0 0 0 0
0 0 0 0 0 0 0 0 0 0 0 0 0 0 0 0 0 0 0 0 0 0 0 0 0 0 0 0 0 0 0 0
0 0 0 0 0 0 0 0 -0 -0 0 0 0 0 0 0 0 0 0 0 0 0 0 0 0 0 0 0 0 0 0 0
0 0 0 0 0 0 0 0 0 0 0 0 0 0 0 -0 -0 -0 -0 0 0 0 0 0 0 0 0 0 0 0 0 0
0 0 0 0 0 0 0 -0 -0 -0 -0 0 0 0 0 0 -0 -0 -0 -0 0 0 0 0 0 0 0 0 0 0 0 0
0 0 0 0 0 0 0 0 0 0 0 0 0 0 0 0 0 0 -0 0 0 0 0 0 -0 -0 0 0 0 0 0 0
0 0 -0 -0 -0 -0 0 0 0 0 0 0 0 0 0 0 0 0 0 -0 0 0 0 0 0 -0 0 0 0 -0 0 0
0 0 -0 0 0 0 0 0 0 0 0 0 0 0 0 0 0 0 0 0 0 -0 -0 -0 -0 -0 -0 -0 -0 -0 0 0
0 0 0 0 0 0 0 0 0 0 0 0 0 0 -0 -0 0 0 0 0 0 0 0 -0 -0 -0 -0 -0 0 0 0 0
0 0 0 0 -0 0 0 0 0 0 0 0 0 0 -0 -0 -0 -0 -0 -0 -0 0 0 0 -0 -0 0 0 0 0 0 0
Wind_Speed_500mb
88 83 75 67 66 58 52 51 44 41 42 44 45 60 66 69 47 69 61 74 81 82 77 73 69 70 66 75 87 85 82 81
92 79 73 63 63 55 47 53 47 34 38 41 37 35 52 61 61 54 65 60 53 57 73 73 68 65 66 66 70 86 83 81
83 81 75 65 63 64 50 53 47 36 32 37 40 32 36 48 50 42 49 40 43 36 46 78 70 68 69 71 73 79 82 81
76 71 66 69 63 61 55 49 44 35 31 32 38 37 32 30 52 56 52 42 45 43 50 64 56 55 70 76 78 70 56 54
73 68 79 89 68 64 57 49 40 38 40 30 32 37 32 33 34 36 55 59 61 61 48 23 33 36 39 42 43 37 48 45
72 82 79 69 63 61 50 43 38 33 40 40 24 27 31 32 28 26 47 62 58 52 38 50 46 46 52 47 41 49 56 51
76 73 70 66 60 56 44 40 34 33 37 36 32 18 21 28 24 22 32 45 46 31 70 65 61 65 60 57 61 66 62 60
77 68 71 67 60 50 39 37 34 33 34 35 27 23 18 17 19 19 21 22 23 48 76 79 75 81 74 69 69 65 58 57
67 63 60 56 46 35 29 29 30 34 34 30 24 22 18 13 16 18 20 26 33 41 32 34 39 41 55 61 65 63 59 53
53 49 50 48 40 28 20 19 24 29 28 26 26 17 16 16 19 21 31 40 43 47 50 43 57 58 60 67 69 66 56 48
45 45 44 40 34 28 25 23 23 22 20 24 23 12 14 18 26 30 34 45 56 64 64 68 71 63 61 64 69 67 61 49
42 45 42 35 27 21 20 18 18 17 14 14 10 11 17 27 37 44 56 65 69 70 71 74 71 69 63 57 56 52 54 50
42 39 35 35 26 18 14 12 11 9 6 1 6 13 25 36 47 58 66 72 78 82 79 72 67 61 54 54 53 49 37 41
35 35 28 29 29 24 24 19 16 13 13 14 16 26 35 45 56 65 71 77 76 76 76 69 61 63 57 51 45 42 40 37
29 33 28 25 25 29 32 30 33 37 36 32 31 33 43 52 58 61 62 66 66 64 62 64 61 56 52 47 43 41 39 30
21 28 32 35 36 36 34 33 40 44 43 41 38 38 41 43 43 44 49 50 52 54 51 52 50 47 45 41 37 29 23 19
17 25 34 41 45 38 35 35 38 35 33 34 33 30 28 33 38 33 27 24 27 28 26 30 34 38 37 33 29 24 18 17
18 20 21 20 20 21 25 29 26 29 34 28 20 15 13 13 14 15 21 24 24 27 30 28 29 29 27 25 21 15 12 14
23 22 20 13 9 8 8 8 8 8 11 12 13 13 13 15 15 13 11 17 24 26 25 25 25 23 19 19 20 19 19 17
38 33 28 21 11 4 3 5 7 8 8 9 10 10 12 13 14 16 17 19 17 19 23 26 25 23 22 23 20 17 19 18
Wind_Direction_500mb
324 325 321 315 320 319 315 302 293 295 292 299 287 262 269 253 249 242 239 250 252 248 245 240 241 244 246 243 238 239 242 244
322 320 321 312 316 315 320 320 291 284 289 294 295 280 257 261 263 260 254 235 234 255 248 242 236 238 241 243 240 237 240 243
313 320 322 318 311 313 311 325 305 281 284 297 293 289 256 253 261 260 257 253 262 248 262 254 246 235 238 239 233 232 232 240
316 314 308 309 305 307 302 318 318 291 290 295 297 291 269 256 250 252 253 258 260 257 268 251 244 245 234 224 219 218 211 193
319 314 310 314 303 299 296 304 315 303 304 295 293 294 287 268 265 261 252 249 255 250 254 223 198 156 155 164 152 153 167 170
319 319 320 319 316 312 295 295 304 300 308 308 289 287 283 275 267 243 246 234 245 222 211 160 158 163 164 166 169 181 183 169
321 325 327 323 321 315 301 296 295 296 304 311 298 280 273 270 267 258 232 245 229 219 184 185 182 183 186 181 180 175 171 162
331 330 324 317 312 309 304 296 290 296 303 307 306 284 264 261 268 254 226 239 235 206 188 175 179 186 183 174 162 152 143 135
327 324 328 332 332 318 303 298 298 303 306 308 299 282 267 235 238 234 198 188 189 188 178 158 149 161 156 146 139 131 127 126
324 329 330 336 342 338 324 308 305 311 314 308 292 276 259 221 210 195 190 174 171 166 176 185 137 140 135 132 124 116 123 129
334 333 329 333 332 336 332 330 323 313 312 299 285 262 227 207 185 175 175 164 160 153 148 144 137 131 133 130 127 128 135 138
339 341 343 346 338 336 329 324 316 314 315 295 276 236 201 182 164 159 153 146 141 137 132 128 126 128 129 129 128 130 135 138
352 353 354 358 358 352 339 350 356 351 335 232 183 188 177 168 158 152 150 145 138 133 127 128 130 129 129 126 131 136 143 158
5 6 12 18 29 34 44 38 41 58 83 107 133 153 156 153 151 145 144 138 136 135 137 139 137 133 137 144 147 154 152 147
42 44 45 47 50 55 58 68 78 81 82 92 112 127 135 137 136 138 141 142 143 138 133 134 143 148 151 156 157 156 155 152
66 68 68 70 70 71 77 84 87 93 98 101 100 103 110 118 122 125 129 138 142 144 149 153 156 160 160 158 156 153 149 153
107 107 97 91 85 78 76 70 67 80 96 106 112 121 131 137 136 135 131 135 144 152 159 163 159 154 155 154 158 162 163 173
168 140 125 108 110 116 108 112 108 101 102 102 107 118 127 134 136 146 151 150 148 146 147 153 159 165 165 167 174 178 205 221
193 175 164 155 114 104 136 162 173 150 143 147 150 149 148 146 145 143 161 164 164 165 166 167 174 182 188 203 213 219 228 234
219 212 215 214 195 163 152 175 168 160 166 159 156 151 147 147 152 163 169 172 180 190 194 194 200 210 216 230 233 234 232 230
Wind_Speed_850mb
88 83 75 67 66 58 52 51 44 41 42 44 45 60 66 69 47 69 61 74 81 82 77 73 69 70 66 75 87 85 82 81
92 79 73 63 63 55 47 53 47 34 38 41 37 35 52 61 61 54 65 60 53 57 73 73 68 65 66 66 70 86 83 81
83 81 75 65 63 64 50 53 47 36 32 37 40 32 36 48 50 42 49 40 43 36 46 78 70 68 69 71 73 79 82 81
76 71 66 69 63 61 55 49 44 35 31 32 38 37 32 30 52 56 52 42 45 43 50 64 56 55 70 76 78 70 56 54
73 68 79 89 68 64 57 49 40 38 40 30 32 37 32 33 34 36 55 59 61 61 48 23 33 36 39 42 43 37 48 45
72 82 79 69 63 61 50 43 38 33 40 40 24 27 31 32 28 26 47 62 58 52 38 50 46 46 52 47 41 49 56 51
76 73 70 66 60 56 44 40 34 33 37 36 32 18 21 28 24 22 32 45 46 31 70 65 61 65 60 57 61 66 62 60
77 68 71 67 60 50 39 37 34 33 34 35 27 23 18 17 19 19 21 22 23 48 76 79 75 81 74 69 69 65 58 57
67 63 60 56 46 35 29 29 30 34 34 30 24 22 18 13 16 18 20 26 33 41 32 34 39 41 55 61 65 63 59 53
53 49 50 48 40 28 20 19 24 29 28 26 26 17 16 16 19 21 31 40 43 47 50 43 57 58 60 67 69 66 56 48
45 45 44 40 34 28 25 23 23 22 20 24 23 12 14 18 26 30 34 45 56 64 64 68 71 63 61 64 69 67 61 49
42 45 42 35 27 21 20 18 18 17 14 14 10 11 17 27 37 44 56 65 69 70 71 74 71 69 63 57 56 52 54 50
42 39 35 35 26 18 14 12 11 9 6 1 6 13 25 36 47 58 66 72 78 82 79 72 67 61 54 54 53 49 37 41
35 35 28 29 29 24 24 19 16 13 13 14 16 26 35 45 56 65 71 77 76 76 76 69 61 63 57 51 45 42 40 37
29 33 28 25 25 29 32 30 33 37 36 32 31 33 43 52 58 61 62 66 66 64 62 64 61 56 52 47 43 41 39 30
21 28 32 35 36 36 34 33 40 44 43 41 38 38 41 43 43 44 49 50 52 54 51 52 50 47 45 41 37 29 23 19
17 25 34 41 45 38 35 35 38 35 33 34 33 30 28 33 38 33 27 24 27 28 26 30 34 38 37 33 29 24 18 17
18 20 21 20 20 21 25 29 26 29 34 28 20 15 13 13 14 15 21 24 24 27 30 28 29 29 27 25 21 15 12 14
23 22 20 13 9 8 8 8 8 8 11 12 13 13 13 15 15 13 11 17 24 26 25 25 25 23 19 19 20 19 19 17
38 33 28 21 11 4 3 5 7 8 8 9 10 10 12 13 14 16 17 19 17 19 23 26 25 23 22 23 20 17 19 18
Wind_Direction_850mb
324 325 321 315 320 319 315 302 293 295 292 299 287 262 269 253 249 242 239 250 252 248 245 240 241 244 246 243 238 239 242 244
322 320 321 312 316 315 320 320 291 284 289 294 295 280 257 261 263 260 254 235 234 255 248 242 236 238 241 243 240 237 240 243
313 320 322 318 311 313 311 325 305 281 284 297 293 289 256 253 261 260 257 253 262 248 262 254 246 235 238 239 233 232 232 240
316 314 308 309 305 307 302 318 318 291 290 295 297 291 269 256 250 252 253 258 260 257 268 251 244 245 234 224 219 218 211 193
319 314 310 314 303 299 296 304 315 303 304 295 293 294 287 268 265 261 252 249 255 250 254 223 198 156 155 164 152 153 167 170
319 319 320 319 316 312 295 295 304 300 308 308 289 287 283 275 267 243 246 234 245 222 211 160 158 163 164 166 169 181 183 169
321 325 327 323 321 315 301 296 295 296 304 311 298 280 273 270 267 258 232 245 229 219 184 185 182 183 186 181 180 175 171 162
331 330 324 317 312 309 304 296 290 296 303 307 306 284 264 261 268 254 226 239 235 206 188 175 179 186 183 174 162 152 143 135
327 324 328 332 332 318 303 298 298 303 306 308 299 282 267 235 238 234 198 188 189 188 178 158 149 161 156 146 139 131 127 126
324 329 330 336 342 338 324 308 305 311 314 308 292 276 259 221 210 195 190 174 171 166 176 185 137 140 135 132 124 116 123 129
334 333 329 333 332 336 332 330 323 313 312 299 285 262 227 207 185 175 175 164 160 153 148 144 137 131 133 130 127 128 135 138
339 341 343 346 338 336 329 324 316 314 315 295 276 236 201 182 164 159 153 146 141 137 132 128 126 128 129 129 128 130 135 138
352 353 354 358 358 352 339 350 356 351 335 232 183 188 177 168 158 152 150 145 138 133 127 128 130 129 129 126 131 136 143 158
5 6 12 18 29 34 44 38 41 58 83 107 133 153 156 153 151 145 144 138 136 135 137 139 137 133 137 144 147 154 152 147
42 44 45 47 50 55 58 68 78 81 82 92 112 127 135 137 136 138 141 142 143 138 133 134 143 148 151 156 157 156 155 152
66 68 68 70 70 71 77 84 87 93 98 101 100 103 110 118 122 125 129 138 142 144 149 153 156 160 160 158 156 153 149 153
107 107 97 91 85 78 76 70 67 80 96 106 112 121 131 137 136 135 131 135 144 152 159 163 159 154 155 154 158 162 163 173
168 140 125 108 110 116 108 112 108 101 102 102 107 118 127 134 136 146 151 150 148 146 147 153 159 165 165 167 174 178 205 221
193 175 164 155 114 104 136 162 173 150 143 147 150 149 148 146 145 143 161 164 164 165 166 167 174 182 188 203 213 219 228 234
219 212 215 214 195 163 152 175 168 160 166 159 156 151 147 147 152 163 169 172 180 190 194 194 200 210 216 230 233 234 232 230